KE7JVX-3 Weather Reports


time (UTC)temp
C
wind
direction
speed
KPH
gust
KPH
rain 1hr
cm
rain 24hr
cm
rain mn
cm
humidity
%
barometer
mb
20260904110006 12 267 27.4 41.8 0.00 0.13 0.13 78 1014.7
20260904104907 12 255 30.6 43.5 0.00 0.13 0.13 78 1014.6
20260904103907 12 261 30.6 45.1 0.00 0.13 0.13 78 1014.5
20260904102907 12 263 30.6 43.5 0.00 0.13 0.13 78 1014.6
20260904101907 12 262 27.4 41.8 0.00 0.13 0.13 78 1014.6
20260904100907 12 256 29.0 43.5 0.00 0.13 0.13 78 1014.5
20260904095908 12 266 32.2 41.8 0.00 0.13 0.13 78 1014.5
20260904094907 12 261 27.4 43.5 0.00 0.13 0.13 78 1014.5
20260904093907 12 263 25.7 41.8 0.00 0.13 0.13 78 1014.5
20260904092909 12 262 25.7 33.8 0.00 0.13 0.13 78 1014.5
20260904091907 12 260 22.5 41.8 0.00 0.13 0.13 78 1014.6
20260904090907 12 265 24.1 38.6 0.00 0.13 0.13 78 1014.6
20260904085909 12 262 27.4 38.6 0.00 0.13 0.13 78 1014.5
20260904084907 12 268 27.4 41.8 0.00 0.13 0.13 78 1014.7
20260904083907 12 263 29.0 43.5 0.00 0.13 0.13 78 1014.8
20260904082907 12 261 27.4 40.2 0.00 0.13 0.13 78 1014.8
20260904081907 12 260 25.7 43.5 0.00 0.13 0.13 78 1014.9
20260904080908 12 266 27.4 43.5 0.00 0.13 0.13 78 1014.9
20260904075907 12 259 22.5 35.4 0.00 0.13 0.13 78 1015.2
20260904074907 12 262 24.1 35.4 0.13 0.13 0.13 77 1015.3
20260904073907 12 260 20.9 37.0 0.13 0.13 0.13 77 1015.3
20260904072907 12 262 19.3 33.8 0.13 0.13 0.13 77 1015.3
20260904071907 12 257 17.7 29.0 0.13 0.13 0.13 77 1015.4
20260904070907 12 256 20.9 32.2 0.13 0.13 0.13 77 1015.4
20260904065907 12 275 19.3 41.8 0.13 0.13 0.13 77 1015.4
20260904064907 12 268 20.9 33.8 0.00 0.00 0.00 77 1015.2
20260904063907 12 248 17.7 35.4 0.00 0.00 0.00 76 1015.3
20260904062907 12 249 20.9 30.6 0.00 0.00 0.00 76 1015.2
20260904061907 12 242 20.9 30.6 0.00 0.00 0.00 75 1015.1
20260904060907 12 241 16.1 27.4 0.00 0.00 0.00 74 1015.1
20260904055907 12 251 19.3 33.8 0.00 0.00 0.00 74 1015.1
20260904054907 12 249 17.7 27.4 0.00 0.00 0.00 73 1015.1
20260904053908 12 254 20.9 30.6 0.00 0.00 0.00 72 1015.2
20260904052908 13 248 17.7 25.7 0.00 0.00 0.00 68 1015.2
20260904051907 13 244 12.9 20.9 0.00 0.00 0.00 66 1015.3
20260904050907 13 246 11.3 19.3 0.00 0.00 0.00 64 1015.3
20260904045907 13 244 14.5 22.5 0.00 0.00 0.00 62 1015.2
20260904044907 13 236 9.7 14.5 0.00 0.00 0.00 63 1015.3
20260904043909 13 234 9.7 14.5 0.00 0.00 0.00 62 1015.3
20260904042907 13 232 8.0 14.5 0.00 0.00 0.00 69 1015.3
20260904041907 12 214 9.7 16.1 0.00 0.00 0.00 73 1015.4
20260904040908 13 228 6.4 14.5 0.00 0.00 0.00 71 1015.4
20260904035907 13 235 6.4 17.7 0.00 0.00 0.00 68 1015.4
20260904034907 13 230 9.7 14.5 0.00 0.00 0.00 65 1015.3
20260904033908 13 238 8.0 16.1 0.00 0.00 0.00 63 1015.2
20260904032907 13 245 12.9 19.3 0.00 0.00 0.00 61 1015.1
20260904031908 13 243 12.9 22.5 0.00 0.00 0.00 60 1015.1
20260904030910 13 256 8.0 20.9 0.00 0.00 0.00 60 1015.0
20260904025907 14 252 11.3 17.7 0.00 0.00 0.00 60 1014.9
20260904024907 14 250 11.3 19.3 0.00 0.00 0.00 59 1014.8
20260904023907 14 255 12.9 22.5 0.00 0.00 0.00 58 1014.7
20260904022907 14 258 11.3 22.5 0.00 0.00 0.00 58 1014.6
20260904021907 14 252 12.9 19.3 0.00 0.00 0.00 57 1014.7
20260904020907 14 255 9.7 17.7 0.00 0.00 0.00 57 1014.8
20260904015907 14 256 11.3 16.1 0.00 0.00 0.00 55 1014.8
20260904014907 15 266 9.7 14.5 0.00 0.00 0.00 54 1014.7
20260904013908 15 282 8.0 12.9 0.00 0.00 0.00 53 1014.5
20260904012907 15 283 6.4 11.3 0.00 0.00 0.00 52 1014.6
20260904011907 15 273 4.8 9.7 0.00 0.00 0.00 52 1014.6
20260904010907 15 263 3.2 9.7 0.00 0.00 0.00 51 1014.7
20260904005908 15 278 3.2 9.7 0.00 0.00 0.00 51 1014.7
20260904004907 16 0 0.0 17.7 0.00 0.00 0.00 48 1014.7
20260904003907 16 261 6.4 17.7 0.00 0.00 0.00 46 1014.8
20260904002907 16 267 6.4 16.1 0.00 0.00 0.00 48 1014.7
20260904001907 16 194 1.6 19.3 0.00 0.00 0.00 46 1014.7
20260904000907 17 290 9.7 20.9 0.00 0.00 0.00 44 1014.7
20260903235907 17 236 6.4 20.9 0.00 0.00 0.00 44 1014.7
20260903234909 17 249 4.8 20.9 0.00 0.00 0.00 46 1014.7
20260903233907 17 222 3.2 25.7 0.00 0.00 0.00 47 1014.7
20260903232907 17 239 3.2 20.9 0.00 0.00 0.00 47 1015.0
20260903231907 17 261 6.4 24.1 0.00 0.00 0.00 49 1015.0
20260903230907 16 226 9.7 19.3 0.00 0.00 0.00 48 1015.0
20260903225907 17 253 8.0 20.9 0.00 0.00 0.00 50 1015.0
20260903224907 16 270 8.0 19.3 0.00 0.00 0.00 51 1015.1
20260903223907 16 297 12.9 22.5 0.00 0.00 0.00 52 1015.1
20260903222907 16 274 9.7 20.9 0.00 0.00 0.00 53 1015.2
20260903221907 16 265 14.5 24.1 0.00 0.00 0.00 50 1015.2
20260903220907 16 260 14.5 24.1 0.00 0.00 0.00 50 1015.2
20260903215907 17 267 16.1 24.1 0.00 0.00 0.00 49 1015.3
20260903214907 17 277 9.7 25.7 0.00 0.00 0.00 46 1015.3
20260903213907 17 275 12.9 27.4 0.00 0.00 0.00 47 1015.3
20260903212907 17 258 12.9 29.0 0.00 0.00 0.00 51 1015.4
20260903211907 16 252 11.3 29.0 0.00 0.00 0.00 49 1015.5
20260903210907 16 256 9.7 22.5 0.00 0.00 0.00 54 1015.6
20260903205907 16 269 11.3 29.0 0.00 0.00 0.00 53 1015.6
20260903204907 16 263 12.9 25.7 0.00 0.00 0.00 58 1015.8
20260903203908 16 248 14.5 27.4 0.00 0.00 0.00 57 1015.8
20260903202907 16 252 14.5 32.2 0.00 0.00 0.00 58 1015.8
20260903201907 16 266 8.0 20.9 0.00 0.00 0.00 60 1015.9
20260903200907 16 260 12.9 25.7 0.00 0.00 0.00 56 1016.0
20260903195907 16 257 12.9 24.1 0.00 0.00 0.00 56 1016.0
20260903194907 15 243 6.4 14.5 0.00 0.00 0.00 63 1016.1
20260903193908 15 253 9.7 19.3 0.00 0.00 0.00 63 1016.1
20260903192907 15 255 8.0 20.9 0.00 0.00 0.00 63 1016.2
20260903191908 15 244 12.9 24.1 0.00 0.00 0.00 63 1016.3
20260903190908 15 232 11.3 22.5 0.00 0.00 0.00 64 1016.4
20260903185907 15 247 11.3 19.3 0.00 0.00 0.00 66 1016.4
20260903184907 15 246 14.5 22.5 0.00 0.00 0.00 67 1016.6
20260903183908 15 249 12.9 27.4 0.00 0.00 0.00 66 1016.7
20260903182909 15 264 11.3 20.9 0.00 0.00 0.00 64 1016.8
20260903181907 15 253 12.9 20.9 0.00 0.00 0.00 65 1016.8
20260903180911 15 262 9.7 17.7 0.00 0.00 0.00 65 1016.9
20260903175910 14 254 9.7 16.1 0.00 0.00 0.00 65 1016.9
20260903174907 14 267 6.4 16.1 0.00 0.00 0.00 64 1017.0
20260903173907 14 248 11.3 17.7 0.00 0.00 0.00 65 1017.0
20260903172907 13 256 4.8 14.5 0.00 0.00 0.00 65 1016.9
20260903171907 13 256 8.0 20.9 0.00 0.00 0.00 65 1017.0
20260903170908 14 266 11.3 24.1 0.00 0.00 0.00 66 1017.0
20260903165907 13 269 11.3 19.3 0.00 0.00 0.00 63 1016.9
20260903164907 13 227 6.4 16.1 0.00 0.00 0.00 62 1016.8
20260903163906 13 240 6.4 19.3 0.00 0.00 0.00 63 1016.8
20260903162907 13 244 8.0 16.1 0.00 0.00 0.00 64 1016.7
20260903161907 12 241 3.2 11.3 0.00 0.00 0.00 65 1016.7
20260903160907 12 255 4.8 14.5 0.00 0.00 0.00 68 1016.7
20260903155907 12 242 6.4 16.1 0.00 0.00 0.00 65 1016.7
20260903154907 12 260 8.0 12.9 0.00 0.00 0.00 62 1016.7
20260903153907 12 240 4.8 17.7 0.00 0.00 0.00 63 1016.7
20260903152907 12 236 8.0 17.7 0.00 0.00 0.00 60 1016.7
20260903151907 12 244 9.7 17.7 0.00 0.00 0.00 60 1016.7
20260903150907 12 255 8.0 16.1 0.00 0.00 0.00 54 1016.6
20260903145907 12 242 3.2 14.5 0.00 0.00 0.00 55 1016.6
20260903144908 13 234 3.2 6.4 0.00 0.00 0.00 48 1016.7
20260903143907 13 283 3.2 11.3 0.00 0.00 0.00 55 1016.6
20260903142907 13 302 3.2 8.0 0.00 0.00 0.00 55 1016.6
20260903141906 13 0 0.0 4.8 0.00 0.00 0.00 49 1016.6
20260903140907 13 302 1.6 8.0 0.00 0.00 0.00 52 1016.6
20260903135907 12 302 1.6 8.0 0.00 0.00 0.00 44 1016.4
20260903134907 12 286 8.0 12.9 0.00 0.00 0.00 53 1016.4
20260903133907 12 292 6.4 14.5 0.00 0.00 0.00 52 1016.4
20260903132906 12 292 6.4 11.3 0.00 0.00 0.00 52 1016.3
20260903131907 13 0 0.0 9.7 0.00 0.00 0.00 50 1016.3
20260903130907 13 273 6.4 14.5 0.00 0.00 0.00 62 1016.2
20260903125906 13 286 8.0 14.5 0.00 0.00 0.00 61 1016.0
20260903124911 13 273 6.4 16.1 0.00 0.00 0.00 63 1016.0
20260903123907 13 288 9.7 17.7 0.00 0.00 0.00 64 1016.0
20260903122907 13 304 11.3 17.7 0.00 0.00 0.00 63 1015.9
20260903121907 12 301 4.8 14.5 0.00 0.00 0.00 64 1015.9
20260903120906 12 306 8.0 16.1 0.00 0.00 0.00 67 1015.9
20260903115906 12 310 8.0 14.5 0.00 0.00 0.00 68 1015.9
20260903114907 13 310 6.4 16.1 0.00 0.00 0.00 65 1016.0
20260903113906 13 305 9.7 17.7 0.00 0.00 0.00 62 1015.9
20260903112907 13 307 9.7 17.7 0.00 0.00 0.00 60 1016.0
20260903111906 13 305 11.3 19.3 0.00 0.00 0.00 53 1015.9
20260903110907 12 304 12.9 20.9 0.00 0.00 0.00 52 1015.9